| time (UTC) | temp C | wind direction | speed KPH | gust KPH | rain 1hr cm | rain 24hr cm | rain mn cm | humidity % | barometer mb |
| 20260508051029 | 8 | 0.0 | 0.0 | 0.00 | 0.00 | 0.00 | 89 | 1013.1 | |
| 20260508050047 | 8 | 0.0 | 0.0 | 0.00 | 0.00 | 0.00 | 89 | 1012.9 | |
| 20260508045023 | 8 | 0.0 | 0.0 | 0.00 | 0.00 | 0.00 | 89 | 1013.0 | |
| 20260508044027 | 8 | 0.0 | 0.0 | 0.00 | 0.00 | 0.00 | 89 | 1013.0 | |
| 20260508043019 | 8 | 0.0 | 0.0 | 0.00 | 0.00 | 0.00 | 88 | 1012.9 | |
| 20260508042126 | 8 | 0.0 | 0.0 | 0.00 | 0.00 | 0.00 | 87 | 1012.9 | |
| 20260508041114 | 9 | 0.0 | 0.0 | 0.00 | 0.00 | 0.00 | 87 | 1012.9 | |
| 20260508040129 | 9 | 0.0 | 0.0 | 0.00 | 0.00 | 0.00 | 87 | 1012.9 | |
| 20260508035106 | 9 | 0.0 | 0.0 | 0.00 | 0.00 | 0.00 | 86 | 1012.7 | |
| 20260508034107 | 9 | 0.0 | 0.0 | 0.00 | 0.00 | 0.00 | 86 | 1012.8 | |
| 20260508033102 | 9 | 0.0 | 3.2 | 0.00 | 0.00 | 0.00 | 85 | 1012.7 | |
| 20260508032059 | 10 | 0.0 | 0.0 | 0.00 | 0.00 | 0.00 | 85 | 1012.6 | |
| 20260508031057 | 10 | 0.0 | 3.2 | 0.00 | 0.00 | 0.00 | 85 | 1012.8 | |
| 20260508030055 | 10 | 0.0 | 0.0 | 0.00 | 0.00 | 0.00 | 84 | 1012.8 | |
| 20260508025051 | 10 | 0.0 | 0.0 | 0.00 | 0.00 | 0.00 | 83 | 1012.6 | |
| 20260508024050 | 10 | 0.0 | 0.0 | 0.00 | 0.00 | 0.00 | 83 | 1012.7 | |
| 20260508023045 | 10 | 0.0 | 0.0 | 0.00 | 0.00 | 0.00 | 82 | 1012.7 | |
| 20260508022043 | 10 | 0.0 | 0.0 | 0.00 | 0.00 | 0.00 | 81 | 1012.6 | |
| 20260508021040 | 10 | 0.0 | 0.0 | 0.00 | 0.00 | 0.00 | 80 | 1012.5 | |
| 20260508020039 | 10 | 0.0 | 0.0 | 0.00 | 0.00 | 0.00 | 78 | 1012.6 | |
| 20260508015056 | 10 | 0.0 | 3.2 | 0.00 | 0.00 | 0.00 | 78 | 1012.6 | |
| 20260508014034 | 10 | 0.0 | 3.2 | 0.00 | 0.00 | 0.00 | 78 | 1012.5 | |
| 20260508013030 | 10 | 0.0 | 3.2 | 0.00 | 0.00 | 0.00 | 80 | 1012.5 | |
| 20260508012048 | 10 | 0.0 | 3.2 | 0.00 | 0.00 | 0.00 | 80 | 1012.5 | |
| 20260508011025 | 10 | 0.0 | 3.2 | 0.00 | 0.00 | 0.00 | 79 | 1012.6 | |
| 20260508010024 | 10 | 0.0 | 0.0 | 0.00 | 0.00 | 0.00 | 82 | 1012.6 | |
| 20260508005021 | 10 | 0.0 | 0.0 | 0.00 | 0.00 | 0.00 | 82 | 1012.7 | |
| 20260508004038 | 11 | 0.0 | 0.0 | 0.00 | 0.00 | 0.00 | 82 | 1012.6 | |
| 20260508003021 | 11 | 0.0 | 0.0 | 0.00 | 0.00 | 0.00 | 80 | 1012.7 | |
| 20260508002113 | 11 | 0.0 | 0.0 | 0.00 | 0.00 | 0.00 | 78 | 1012.8 | |
| 20260508001130 | 11 | 0.0 | 3.2 | 0.00 | 0.00 | 0.00 | 75 | 1012.8 | |
| 20260508000114 | 11 | 0.0 | 3.2 | 0.00 | 0.00 | 0.00 | 75 | 1012.6 | |
| 20260507235238 | 11 | 0.0 | 3.2 | 0.00 | 0.00 | 0.00 | 76 | 1012.7 | |
| 20260507234106 | 11 | 0.0 | 3.2 | 0.00 | 0.00 | 0.00 | 76 | 1012.5 | |
| 20260507233120 | 11 | 0.0 | 3.2 | 0.00 | 0.00 | 0.00 | 76 | 1012.5 | |
| 20260507231054 | 11 | 0.0 | 3.2 | 0.00 | 0.00 | 0.00 | 78 | 1012.4 | |
| 20260507230053 | 11 | 236 | 0.0 | 3.2 | 0.00 | 0.00 | 0.00 | 79 | 1012.3 |
| 20260507225050 | 11 | 0.0 | 0.0 | 0.00 | 0.00 | 0.00 | 80 | 1012.2 | |
| 20260507224106 | 11 | 0.0 | 3.2 | 0.00 | 0.00 | 0.00 | 81 | 1012.3 | |
| 20260507223045 | 10 | 0.0 | 0.0 | 0.00 | 0.00 | 0.00 | 81 | 1012.2 | |
| 20260507222041 | 11 | 0.0 | 0.0 | 0.00 | 0.00 | 0.00 | 81 | 1012.2 | |
| 20260507221058 | 11 | 0.0 | 0.0 | 0.00 | 0.00 | 0.00 | 82 | 1012.3 | |
| 20260507220035 | 11 | 0.0 | 0.0 | 0.00 | 0.00 | 0.00 | 82 | 1012.2 | |
| 20260507215053 | 11 | 0.0 | 3.2 | 0.00 | 0.00 | 0.00 | 81 | 1012.4 | |
| 20260507214031 | 11 | 0.0 | 0.0 | 0.00 | 0.00 | 0.00 | 81 | 1012.4 | |
| 20260507213029 | 11 | 0.0 | 0.0 | 0.00 | 0.00 | 0.00 | 81 | 1012.4 | |
| 20260507212025 | 11 | 0.0 | 3.2 | 0.00 | 0.00 | 0.00 | 80 | 1012.3 | |
| 20260507211022 | 11 | 0.0 | 3.2 | 0.00 | 0.00 | 0.00 | 80 | 1012.5 | |
| 20260507210020 | 11 | 0.0 | 3.2 | 0.00 | 0.00 | 0.00 | 79 | 1012.4 | |
| 20260507205017 | 11 | 0.0 | 0.0 | 0.00 | 0.00 | 0.00 | 78 | 1012.1 | |
| 20260507204015 | 11 | 0.0 | 0.0 | 0.00 | 0.00 | 0.00 | 78 | 1012.2 | |
| 20260507203112 | 11 | 0.0 | 0.0 | 0.00 | 0.00 | 0.00 | 78 | 1012.0 | |
| 20260507202110 | 11 | 0.0 | 3.2 | 0.00 | 0.00 | 0.00 | 79 | 1012.0 | |
| 20260507201108 | 11 | 0.0 | 0.0 | 0.00 | 0.00 | 0.00 | 79 | 1011.9 | |
| 20260507200106 | 11 | 0.0 | 0.0 | 0.00 | 0.00 | 0.00 | 78 | 1012.0 | |
| 20260507195122 | 11 | 0.0 | 0.0 | 0.00 | 0.00 | 0.00 | 77 | 1011.8 | |
| 20260507194120 | 11 | 0.0 | 3.2 | 0.00 | 0.00 | 0.00 | 76 | 1011.7 | |
| 20260507193057 | 11 | 0.0 | 0.0 | 0.00 | 0.00 | 0.00 | 74 | 1011.6 | |
| 20260507192054 | 11 | 0.0 | 3.2 | 0.00 | 0.00 | 0.00 | 74 | 1011.5 | |
| 20260507191052 | 12 | 0.0 | 0.0 | 0.00 | 0.00 | 0.00 | 74 | 1011.4 | |
| 20260507190050 | 12 | 0.0 | 0.0 | 0.00 | 0.00 | 0.00 | 74 | 1011.5 | |
| 20260507185047 | 12 | 0.0 | 0.0 | 0.00 | 0.00 | 0.00 | 73 | 1011.4 | |
| 20260507184044 | 12 | 0.0 | 3.2 | 0.00 | 0.00 | 0.00 | 73 | 1011.3 | |
| 20260507183042 | 12 | 0.0 | 0.0 | 0.00 | 0.00 | 0.00 | 75 | 1011.3 | |
| 20260507182039 | 11 | 0.0 | 3.2 | 0.00 | 0.00 | 0.00 | 76 | 1011.2 | |
| 20260507181058 | 11 | 0.0 | 3.2 | 0.00 | 0.00 | 0.00 | 78 | 1011.3 | |
| 20260507180035 | 11 | 0.0 | 0.0 | 0.00 | 0.00 | 0.00 | 78 | 1011.2 | |
| 20260507175031 | 11 | 0.0 | 3.2 | 0.00 | 0.00 | 0.00 | 78 | 1011.2 | |
| 20260507174029 | 11 | 0.0 | 0.0 | 0.00 | 0.00 | 0.00 | 79 | 1011.3 | |
| 20260507173026 | 11 | 0.0 | 0.0 | 0.00 | 0.00 | 0.00 | 78 | 1011.5 | |
| 20260507172024 | 11 | 0.0 | 0.0 | 0.00 | 0.00 | 0.00 | 78 | 1011.5 | |
| 20260507171021 | 11 | 0.0 | 0.0 | 0.00 | 0.00 | 0.00 | 77 | 1011.7 | |
| 20260507170020 | 11 | 0.0 | 0.0 | 0.00 | 0.00 | 0.00 | 76 | 1011.6 | |
| 20260507165016 | 11 | 0.0 | 0.0 | 0.00 | 0.00 | 0.00 | 74 | 1011.9 | |
| 20260507164134 | 12 | 0.0 | 0.0 | 0.00 | 0.00 | 0.00 | 70 | 1012.0 | |
| 20260507163111 | 12 | 0.0 | 3.2 | 0.00 | 0.00 | 0.00 | 68 | 1012.0 | |
| 20260507162110 | 12 | 0.0 | 0.0 | 0.00 | 0.00 | 0.00 | 68 | 1012.0 | |
| 20260507161106 | 12 | 0.0 | 0.0 | 0.00 | 0.00 | 0.00 | 66 | 1011.9 | |
| 20260507160103 | 12 | 0.0 | 0.0 | 0.00 | 0.00 | 0.00 | 67 | 1012.0 | |
| 20260507155101 | 12 | 0.0 | 3.2 | 0.00 | 0.00 | 0.00 | 67 | 1012.0 | |
| 20260507154057 | 12 | 0.0 | 0.0 | 0.00 | 0.00 | 0.00 | 66 | 1012.1 | |
| 20260507153054 | 12 | 0.0 | 0.0 | 0.00 | 0.00 | 0.00 | 66 | 1012.2 | |
| 20260507152112 | 12 | 0.0 | 3.2 | 0.00 | 0.00 | 0.00 | 66 | 1012.2 | |
| 20260507151051 | 12 | 236 | 0.0 | 3.2 | 0.00 | 0.00 | 0.00 | 65 | 1011.9 |
| 20260507150048 | 13 | 203 | 0.0 | 3.2 | 0.00 | 0.00 | 0.00 | 64 | 1011.6 |
| 20260507145044 | 13 | 225 | 0.0 | 3.2 | 0.00 | 0.00 | 0.00 | 64 | 1011.8 |
| 20260507144041 | 13 | 225 | 0.0 | 3.2 | 0.00 | 0.00 | 0.00 | 64 | 1011.7 |
| 20260507143039 | 13 | 225 | 0.0 | 3.2 | 0.00 | 0.00 | 0.00 | 65 | 1012.1 |
| 20260507142036 | 13 | 246 | 0.0 | 3.2 | 0.00 | 0.00 | 0.00 | 66 | 1012.1 |
| 20260507141035 | 12 | 208 | 0.0 | 3.2 | 0.00 | 0.00 | 0.00 | 66 | 1012.0 |
| 20260507140031 | 12 | 232 | 0.0 | 3.2 | 0.00 | 0.00 | 0.00 | 67 | 1012.4 |
| 20260507135048 | 12 | 248 | 1.6 | 6.4 | 0.00 | 0.00 | 0.00 | 68 | 1012.1 |
| 20260507134026 | 12 | 219 | 0.0 | 3.2 | 0.00 | 0.00 | 0.00 | 67 | 1012.3 |
| 20260507133023 | 12 | 220 | 1.6 | 3.2 | 0.00 | 0.00 | 0.00 | 67 | 1012.2 |
| 20260507132022 | 12 | 236 | 1.6 | 3.2 | 0.00 | 0.00 | 0.00 | 67 | 1012.5 |
| 20260507131019 | 12 | 235 | 0.0 | 3.2 | 0.00 | 0.00 | 0.00 | 68 | 1012.4 |
| 20260507130015 | 12 | 236 | 0.0 | 3.2 | 0.00 | 0.00 | 0.00 | 68 | 1012.5 |
| 20260507125134 | 12 | 248 | 1.6 | 3.2 | 0.00 | 0.00 | 0.00 | 68 | 1012.8 |
| 20260507124112 | 12 | 225 | 0.0 | 3.2 | 0.00 | 0.00 | 0.00 | 69 | 1012.8 |
| 20260507123108 | 11 | 215 | 1.6 | 3.2 | 0.00 | 0.00 | 0.00 | 70 | 1012.9 |
| 20260507122107 | 11 | 0.0 | 3.2 | 0.00 | 0.00 | 0.00 | 72 | 1013.0 | |
| 20260507121104 | 11 | 225 | 0.0 | 6.4 | 0.00 | 0.00 | 0.00 | 72 | 1013.6 |
| 20260507115052 | 10 | 248 | 0.0 | 3.2 | 0.00 | 0.00 | 0.00 | 72 | 1013.6 |
| 20260507114110 | 11 | 225 | 0.0 | 3.2 | 0.00 | 0.00 | 0.00 | 72 | 1013.3 |
| 20260507113048 | 11 | 210 | 0.0 | 3.2 | 0.00 | 0.00 | 0.00 | 73 | 1013.1 |
| 20260507112039 | 11 | 225 | 0.0 | 3.2 | 0.00 | 0.00 | 0.00 | 74 | 1013.0 |
| 20260507111038 | 11 | 234 | 0.0 | 6.4 | 0.00 | 0.00 | 0.00 | 74 | 1013.2 |
| 20260507110029 | 11 | 225 | 0.0 | 3.2 | 0.00 | 0.00 | 0.00 | 73 | 1013.1 |
| 20260507105025 | 11 | 225 | 0.0 | 3.2 | 0.00 | 0.00 | 0.00 | 71 | 1012.4 |
| 20260507104023 | 12 | 200 | 1.6 | 3.2 | 0.00 | 0.00 | 0.00 | 69 | 1012.4 |
| 20260507103114 | 11 | 232 | 1.6 | 3.2 | 0.00 | 0.00 | 0.00 | 69 | 1012.5 |
| 20260507102132 | 12 | 210 | 0.0 | 6.4 | 0.00 | 0.00 | 0.00 | 69 | 1012.6 |
| 20260507101104 | 11 | 230 | 1.6 | 6.4 | 0.00 | 0.00 | 0.00 | 70 | 1012.6 |
| 20260507095059 | 11 | 212 | 1.6 | 3.2 | 0.00 | 0.00 | 0.00 | 70 | 1011.4 |
| 20260507094111 | 11 | 216 | 1.6 | 6.4 | 0.00 | 0.00 | 0.00 | 72 | 1011.4 |
| 20260507093048 | 11 | 235 | 0.0 | 3.2 | 0.00 | 0.00 | 0.00 | 71 | 1011.4 |
| 20260507092040 | 11 | 251 | 0.0 | 6.4 | 0.00 | 0.00 | 0.00 | 72 | 1012.3 |